Location: Beekmeers
(50.8953°N, 3.6968°E)
Time: 13:13:08
(UTC+00:00)

SENTINEL 1B - Pass Details

Date: 20 October 2025
Orbit: 561 x 585 km, 98.1° (Epoch: 16 November)

Event Time Altitude Azimuth Distance (km) Brightness Sun altitude
Exits shadow 19:46:35 21° 348° (NNW) 1,334 7.3 -29.4°
Drops below altitude 10° 19:48:02 10° 347° (NNW) 1,919 8.2 -29.7°
Sets 19:50:12 0° 347° (NNW) 2,821 9.2 -30.0°
